CAPE
1639 1468 1435 1541 1846 1708 1692 1780 1711 1937 2206 2099 2268 2341 2480 2796 2874 2843 2960 2985 3127 3268 3606 3616 3983 3674 3346 3123 3296 3630 3260 3651 3839 3408 3499 3457 3082 2978 2714 2674 2894 2827
1625 1551 1527 1697 1919 1930 1988 1996 2012 2056 2320 2587 2439 2617 2648 2815 2809 2532 2931 2988 3092 2928 3109 3329 3535 3580 3434 3234 3746 3423 3664 3734 3822 3010 3241 3603 3564 3071 2811 2828 2734 2841
1534 1602 1754 1718 1643 1692 1505 1620 2014 2108 2060 2094 2169 2454 2569 2599 2787 2886 3034 2940 2901 2899 3117 3444 3500 3434 3398 3422 3433 3318 3161 3366 3092 3030 3252 3627 3513 3145 3145 2803 2571 2499
1462 1398 1345 1291 1460 1465 1400 1617 1628 1788 1938 1960 2204 2155 2048 2093 2218 2680 3058 2791 2916 2947 3002 3199 3397 3390 3454 3520 3729 3764 3325 3686 3349 3411 3399 3544 3269 3090 2843 2702 2520 2461
1380 1394 1272 1347 1286 1524 1600 1531 1592 1584 1479 1783 1833 1947 2185 2265 2337 2182 2492 2890 2772 2921 2945 2790 3040 3110 3352 3475 3760 3752 3330 3305 3401 3769 3805 3726 3596 3299 2876 2748 2897 3063
1424 1530 1485 1353 1295 1296 1386 1504 1461 1324 1392 1364 1492 1693 1812 2077 1958 1954 1906 2228 2415 2262 2198 2438 2759 2789 2858 3183 3792 3674 3361 2977 2720 3456 3933 4265 3518 2914 2434 2723 2385 2923
1148 1396 1368 1363 1349 1275 1340 1102 1008 1107 1122 1183 1474 1518 1553 1733 1747 1597 1753 1753 1930 2411 2399 2573 2951 3194 2960 3088 3428 4043 3901 3697 3523 3554 3802 3549 3470 3448 3101 2585 2830 3288
629 827 1249 1221 1104 1100 1237 1004 884 923 965 1021 1020 1216 1328 1291 1481 1632 1719 1611 2016 2247 2490 2586 2907 3398 3257 2462 3162 3516 3826 2930 3076 3665 4198 3578 3078 2703 2470 2958 2776 3193
590 395 519 709 706 626 693 793 747 873 1029 1104 901 741 1029 1168 1218 1383 1809 2270 2433 2562 2843 2936 2782 2817 2555 2688 2987 3035 3261 2915 2746 2124 2414 2557 2777 2689 1741 1860 2554 2844
677 413 379 461 456 404 453 500 499 622 914 937 870 580 536 1076 1139 1418 1789 2084 2207 2296 2558 2750 2794 2905 2287 1984 2598 3393 3390 3708 3382 3153 3015 2954 3132 2615 1915 2087 2613 2809
712 466 423 512 406 360 341 330 326 340 399 756 693 419 391 434 985 1298 1475 1754 1787 1874 2063 2157 2188 2461 2352 2472 1982 2862 3052 3242 3492 3452 3023 3572 3630 2339 1926 2270 2817 2716
1433 981 680 718 734 438 335 327 299 348 512 596 718 588 505 491 509 877 1057 1402 1587 1603 1822 2298 2561 2676 2519 2786 2513 2608 2704 3262 3326 3062 3055 2898 3249 2387 2073 2634 2701 3065
2362 1964 1568 1169 1310 1134 591 506 361 352 424 487 618 637 571 506 515 682 824 867 1127 1457 2200 2859 3068 2844 3596 3506 3631 3393 3432 3310 3259 3341 3256 3373 3422 3497 2928 2734 2468 3037
2834 2685 2536 2391 2469 2453 1732 1193 966 476 422 591 666 733 715 551 346 385 723 1016 1064 1612 3228 3341 3658 3656 4177 4073 3848 3548 3386 3077 3114 3443 3442 3242 3546 3535 3402 3322 2973 2276
2864 2562 2995 3174 3208 3426 2925 2335 2060 1707 1279 1190 1100 1075 1020 655 518 378 760 1760 2010 2278 3020 3104 3407 2894 1757 1657 2349 3025 3213 3114 3830 3634 3436 3821 3509 2778 2353 2214 2112 2334
3474 3460 3330 3631 3868 3903 3558 3275 2826 2569 2320 2289 2201 2128 1816 1329 1279 1352 1337 1352 2009 2551 2912 3086 2240 902 675 556 588 1307 2188 2544 3216 3080 3174 3001 2700 2476 2114 1532 1726 1696
2816 2790 3023 3321 3292 3266 3452 3666 3242 2940 2738 2720 2656 2633 2639 2401 2221 1829 2155 2660 2706 2667 2512 1608 853 688 542 521 508 538 1268 2542 2994 3061 2841 2539 2182 2195 2108 1519 1279 1058
2222 2234 2453 2718 2558 2664 3415 3697 3423 2932 2920 2817 2808 2723 2537 2498 2565 2534 2761 2769 2473 1898 1411 1033 851 677 562 540 640 761 818 1515 2506 2380 2436 2354 2323 1949 1192 1469 1398 664
1809 1539 1997 1943 2020 2239 2724 2788 2915 2480 2509 2759 2792 2822 2728 2354 2333 2186 1839 1326 1333 954 924 821 759 719 637 789 842 872 893 1056 1927 2064 1528 1830 1527 1136 870 674 572 498
1797 1752 1822 1913 2112 2174 2161 2372 1998 2325 2394 2409 2742 2674 2486 2242 1577 1687 1483 1313 882 829 815 721 795 919 965 980 1000 1004 1000 1290 1310 1203 1059 806 714 625 589 530 481 401
1920 1894 1654 1662 1677 1867 2047 1958 1782 1906 1824 1814 1608 1594 1377 1214 871 835 816 874 921 988 1079 1322 1278 1242 1143 1031 985 965 914 892 846 844 801 729 629 469 373 289 263 269
1153 1380 1225 1288 1393 1569 1599 1559 1494 1348 1418 1307 1272 1197 1046 945 888 945 1176 1368 1453 1410 1277 1114 974 858 787 741 662 614 566 511 543 547 505 375 308 267 207 206 228 111
693 727 706 1010 1039 1084 1262 1260 1392 1122 1272 1246 1220 1093 982 944 1211 1434 1409 1416 1276 1085 990 845 703 500 383 326 257 300 371 354 401 340 262 227 189 176 148 189 29 2
652 591 598 630 818 744 749 760 792 945 1117 1094 1056 1061 912 1083 1366 1427 1164 1092 1112 916 665 555 444 301 221 240 258 257 264 232 223 187 218 187 224 136 134 8 4 6
622 483 394 322 509 566 564 558 690 789 784 785 863 777 994 1286 1238 1150 1124 934 755 664 575 426 283 170 144 172 161 178 227 207 165 124 93 119 128 134 138 2 0 3
620 347 341 366 232 269 311 390 520 635 776 913 956 904 992 1001 679 849 799 672 553 411 390 349 288 183 106 32 4 26 35 6 12 42 56 8 5 0 3 2 2 3
Wind_Speed
4 5 4 5 5 5 5 4 4 3 5 5 4 4 5 4 4 5 4 3 2 3 3 4 4 5 4 3 4 4 5 5 6 6 6 7 8 8 8 8 8 8
3 3 5 5 5 6 6 7 5 7 5 7 8 7 5 5 3 3 3 3 2 3 3 3 2 3 4 5 4 5 5 5 5 5 5 5 6 7 8 8 9 9
1 2 2 3 3 2 3 4 6 6 6 5 5 7 6 3 4 2 2 2 2 3 0 2 3 3 4 3 3 4 4 4 5 6 6 5 6 7 7 8 8 7
1 1 1 2 3 2 2 4 4 5 6 5 5 5 5 6 3 1 1 1 2 1 2 1 2 3 1 2 2 3 3 4 4 5 5 6 5 6 6 6 5 4
3 2 2 2 2 3 4 3 3 3 4 5 4 4 5 5 5 3 1 1 0 0 1 0 0 1 1 2 2 3 3 4 4 3 5 5 6 5 4 1 5 8
1 0 1 2 3 3 4 3 3 4 3 3 3 4 2 2 2 3 2 1 1 1 1 1 2 2 3 4 4 4 5 5 6 7 5 4 4 3 2 11 10 7
2 2 0 1 2 3 3 4 4 4 4 4 4 3 3 2 2 2 3 3 3 3 3 4 5 5 6 7 7 6 6 6 7 8 7 4 3 4 8 12 10 5
4 4 3 3 2 3 3 4 4 5 4 4 3 4 3 3 3 3 4 4 4 4 4 4 5 5 5 5 6 7 6 8 8 9 10 11 10 11 12 13 10 8
6 6 6 4 2 3 3 4 5 5 6 4 5 5 7 6 6 5 6 7 7 7 8 7 8 8 7 5 8 8 8 8 18 16 12 9 10 14 11 7 10 11
9 8 7 7 5 6 5 6 7 8 7 6 7 8 8 10 8 8 9 9 8 8 8 9 9 8 9 8 6 9 9 12 15 12 11 11 10 13 15 12 11 11
11 11 10 9 8 9 7 8 8 8 9 8 10 9 9 10 12 11 11 10 9 8 8 9 9 10 10 9 4 11 13 12 13 12 12 13 13 13 15 14 13 12
15 14 14 13 12 11 10 10 10 10 10 12 12 11 12 12 13 13 13 13 12 11 11 11 12 13 12 10 10 14 15 15 14 13 12 12 13 16 15 13 13 15
19 18 18 16 15 14 14 14 13 12 12 13 15 14 13 14 15 16 15 15 15 15 15 17 18 18 19 18 17 18 17 16 15 16 15 13 13 17 16 15 15 17
23 22 20 19 19 18 18 18 17 15 16 17 16 16 16 16 16 17 18 18 18 19 21 22 23 23 24 24 23 22 21 20 20 19 19 18 19 19 18 18 17 18
25 25 25 24 22 23 22 22 21 21 21 20 19 19 19 18 18 18 19 21 22 25 26 26 27 29 30 27 26 24 23 22 22 23 22 24 21 20 19 17 18 20
29 30 29 27 27 27 26 25 25 24 24 23 22 22 20 20 21 22 22 21 23 25 27 29 32 32 32 30 28 25 23 23 23 23 23 24 22 19 18 20 21 22
29 28 29 29 29 29 28 27 26 25 24 24 23 23 22 22 23 22 24 26 27 28 28 32 34 34 33 31 29 27 24 24 24 25 27 26 24 22 24 24 24 25
30 28 27 28 29 29 29 28 26 25 24 24 24 24 25 26 25 26 28 29 30 31 34 35 37 37 32 34 32 30 27 26 28 29 28 26 26 27 25 25 29 32
32 28 28 28 28 29 29 28 27 26 26 26 26 28 31 30 31 32 31 31 33 35 37 37 38 39 35 36 34 31 29 26 32 31 33 32 33 33 33 31 31 32
31 30 30 31 31 31 31 31 31 32 31 32 33 35 35 35 36 34 35 35 36 36 36 38 39 40 37 37 35 34 32 29 39 38 38 38 38 37 36 35 35 36
35 35 34 35 37 36 34 32 33 36 35 38 40 39 41 41 39 39 41 40 39 38 37 37 39 39 35 36 37 36 37 42 41 41 41 41 41 42 41 39 39 40
38 37 38 39 39 38 36 35 35 40 42 44 44 45 45 46 45 43 43 44 44 42 40 39 39 39 35 36 38 40 46 44 43 43 42 42 43 44 43 41 41 44
40 41 44 43 40 39 38 40 46 51 46 45 47 46 46 47 44 42 42 45 44 43 42 42 41 40 38 41 42 43 44 43 43 42 42 45 45 46 45 46 nan nan
47 51 47 44 42 41 44 49 52 51 49 46 48 49 50 47 43 41 42 43 43 44 43 43 42 42 43 43 41 40 42 42 41 41 44 45 47 49 48 nan nan nan
41 49 52 49 47 47 47 48 49 47 46 47 46 45 43 39 37 39 43 44 44 44 46 43 43 43 43 42 41 41 41 41 41 45 nan 49 48 48 47 nan nan nan
36 43 46 47 45 45 44 46 47 45 43 44 43 41 39 38 37 39 42 40 39 41 40 39 39 39 40 nan nan nan nan nan nan nan nan nan nan nan nan nan nan nan
Wind_Direction
207 210 208 200 195 181 177 170 159 170 162 163 172 179 178 176 172 160 156 157 129 113 116 131 145 146 153 170 171 167 166 171 174 182 184 184 180 179 179 184 178 176
210 200 195 189 198 189 176 164 165 158 172 162 161 184 173 171 164 151 138 125 98 89 107 116 132 144 153 166 188 174 176 177 171 185 191 194 193 188 188 186 183 184
227 211 183 157 175 166 145 170 171 166 164 160 158 159 164 160 144 142 130 105 112 123 86 153 153 159 157 174 186 176 178 185 176 175 190 198 201 200 204 199 195 192
29 75 109 110 132 147 163 178 188 176 166 172 161 159 161 170 183 154 107 98 119 141 159 162 175 165 171 197 213 188 191 196 189 189 185 198 199 200 208 212 206 197
16 30 91 123 145 163 177 184 167 197 173 181 177 180 190 181 166 154 175 287 245 102 319 332 291 141 204 214 222 210 206 203 214 212 201 191 198 204 217 249 239 237
325 14 88 145 177 191 184 187 187 186 209 212 185 193 212 234 164 156 184 202 288 317 257 262 287 290 288 280 264 232 222 220 220 238 232 210 195 201 251 262 266 257
262 263 321 203 184 222 189 194 204 204 221 210 225 205 214 244 255 238 226 221 199 211 228 242 242 231 228 231 248 250 244 233 223 221 218 202 186 207 244 259 255 244
257 257 243 229 219 240 233 219 220 233 228 242 252 260 251 252 262 264 284 277 257 260 243 234 247 259 268 267 268 267 256 256 263 253 243 230 204 227 217 239 249 235
246 257 262 266 256 228 242 233 242 238 246 251 263 267 279 275 277 279 264 263 260 250 245 235 220 209 211 245 269 263 258 246 251 261 279 284 269 261 258 257 258 267
247 242 256 260 257 242 231 228 226 237 242 246 254 258 268 278 278 270 272 270 260 257 254 254 255 246 236 206 229 267 256 255 264 275 276 280 283 287 296 300 291 281
248 250 246 246 243 241 245 242 235 237 242 243 248 252 260 268 276 275 272 272 268 267 267 269 273 273 265 255 237 255 259 260 269 278 280 280 275 278 283 292 295 288
248 246 247 247 239 238 242 244 249 251 249 252 252 252 255 261 266 269 272 275 271 263 257 259 260 269 279 281 261 259 265 266 262 261 264 269 273 278 284 284 278 279
246 244 244 246 246 243 246 249 248 252 255 254 257 257 259 262 266 268 264 264 266 264 261 257 254 251 252 254 254 257 261 264 266 266 268 268 277 282 281 279 271 268
254 251 248 248 249 249 248 250 251 249 251 253 253 259 259 261 261 264 267 266 265 264 261 258 257 256 255 253 253 255 258 261 265 265 266 266 265 271 267 267 267 265
257 256 253 251 250 251 251 252 252 248 247 247 249 248 251 255 257 256 256 257 257 257 256 256 256 253 251 249 250 253 258 262 267 268 268 272 274 271 271 266 265 265
256 255 256 255 253 251 250 251 252 254 254 255 252 251 247 247 247 250 252 256 259 261 260 258 257 255 249 244 246 252 256 261 264 267 268 270 270 271 270 265 262 262
249 249 253 256 256 255 254 254 256 257 259 261 260 258 255 250 250 250 250 248 251 257 260 259 256 254 245 248 246 244 251 259 264 266 266 266 264 264 268 268 272 271
252 251 254 256 256 256 258 260 262 265 266 265 264 264 260 256 253 253 252 252 253 253 254 254 256 252 249 250 249 247 249 252 259 259 259 261 263 267 265 268 271 273
255 254 255 257 257 257 258 260 263 265 265 265 263 261 260 259 258 256 257 257 256 255 256 257 256 249 248 250 252 250 250 249 259 258 262 261 263 263 264 267 272 273
253 255 256 258 259 258 257 258 260 259 258 258 258 261 260 259 259 260 259 258 258 260 260 258 257 246 243 247 251 251 250 250 262 263 264 265 265 266 268 270 272 274
247 252 253 253 255 256 255 256 260 260 259 258 257 261 260 258 259 261 260 260 262 261 261 260 257 248 246 247 250 253 255 257 261 264 265 266 267 268 270 273 274 273
240 244 249 252 254 256 257 258 260 262 261 260 262 263 264 263 263 265 265 264 262 261 260 259 258 250 247 250 254 259 261 262 262 262 264 267 270 270 271 272 272 272
243 244 247 249 251 253 255 257 257 257 258 261 262 262 260 260 263 263 263 264 264 262 259 257 253 244 248 256 258 260 263 264 264 265 267 270 271 271 270 269 nan nan
248 245 247 249 251 255 256 254 254 258 260 260 263 263 261 259 257 253 253 257 262 261 259 258 254 249 253 258 261 261 263 264 265 267 269 269 267 265 267 nan nan nan
252 247 246 250 253 253 253 253 254 255 256 259 260 259 255 250 247 250 255 257 258 259 259 261 259 253 250 253 255 260 266 266 267 268 nan 269 269 268 268 nan nan nan
253 249 249 252 256 254 251 252 254 254 257 260 258 253 250 248 249 252 255 254 254 256 258 262 261 255 248 nan nan nan nan nan nan nan nan nan nan nan nan nan nan nan